Voltar ao catálogo

STARLINK-31122

AtivoComunicaçõesVLEO
NORAD 58774·PAYLOAD·🇺🇸 United States

Lançado Jan 14, 2024 de Vandenberg Space Force Base

Loading…

Próximas Passagens (próximas 24 horas)

TLE

AtualizadoSource: CelesTrak SupGP

Época: Sep 15, 2026, 03:17 UTC

1 58774C 24011K   26258.13729167 -.00037153  00000+0 -10980-2 0  2586
2 58774  53.1581 212.6845 0001358  91.4394 137.0382 15.34400690    18

Acompanhe STARLINK-31122 em tempo real com AllMySat

Download on the App Store